Stations météo

réclame
Mon MeteoGroup
Meppen, Allemagne (10304): Température de l'air & dewpoint: 04.12.2019 18:00:00 - 10.12.2019 18:00:00 (CET)Meppen, Allemagne (10304): Vitesse du vent & gusts: 04.12.2019 18:00:00 - 10.12.2019 18:00:00 (CET)Meppen, Allemagne (10304): Direction du vent: 04.12.2019 18:00:00 - 10.12.2019 18:00:00 (CET)Meppen, Allemagne (10304): reduced air pressure: 04.12.2019 18:00:00 - 10.12.2019 18:00:00 (CET)Meppen, Allemagne (10304): visibility: 04.12.2019 18:00:00 - 10.12.2019 18:00:00 (CET)
Date & Time tt [°C] td [°C] ff [km/h] ff [knt] fx [km/h] fx [knt] dd ppp [hPa] vv [km]
10.12.2019 18:00:00 4,9 -0,1 22 12 - - S 1016,9 -
10.12.2019 17:00:00 4,7 0,0 18 10 - - SSW 1018,1 -
10.12.2019 16:00:00 4,9 0,3 18 10 - - SSW 1019,2 -
10.12.2019 15:00:00 5,4 1,1 18 10 - - SSW 1020,2 -
10.12.2019 14:00:00 5,7 1,3 18 10 - - SSW 1021,3 40
10.12.2019 13:00:00 5,4 1,5 18 10 - - SW 1022,2 40
10.12.2019 12:00:00 4,5 0,9 18 10 - - SW 1023,0 40
10.12.2019 11:00:00 3,3 0,3 14 8 - - SW 1023,7 40
10.12.2019 10:00:00 1,8 -0,5 11 6 - - SW 1023,5 40
10.12.2019 09:00:00 -0,1 -1,1 7 4 - - WSW 1023,3 35
10.12.2019 08:00:00 -0,5 -1,2 11 6 - - SW 1023,1 35
10.12.2019 07:00:00 -0,3 -1,3 7 4 - - W 1022,7 30
10.12.2019 06:00:00 0,3 -1,1 11 6 - - WSW 1022,2 -
10.12.2019 05:00:00 1,1 -0,7 11 6 - - W 1021,8 -
10.12.2019 04:00:00 1,9 -0,6 11 6 - - W 1021,0 -
10.12.2019 03:00:00 2,1 -0,4 11 6 - - W 1020,2 -
10.12.2019 02:00:00 1,9 -0,2 11 6 - - W 1018,8 -
10.12.2019 01:00:00 2,9 -0,2 11 6 - - W 1018,1 -
10.12.2019 00:00:00 3,0 -0,4 11 6 - - W 1016,9 -
09.12.2019 23:00:00 3,9 0,0 11 6 - - WNW 1015,4 -
09.12.2019 22:00:00 3,9 0,4 11 6 - - WNW 1014,3 -
09.12.2019 21:00:00 4,5 0,7 11 6 - - WNW 1012,7 -
09.12.2019 20:00:00 5,3 1,3 14 8 - - WNW 1010,8 -
09.12.2019 19:00:00 6,3 1,5 18 10 - - NNW 1008,7 -
09.12.2019 18:00:00 6,1 3,2 11 6 - - NW 1006,4 -
09.12.2019 17:00:00 6,0 4,0 14 8 - - NNW 1004,1 -
09.12.2019 16:00:00 6,8 4,5 14 8 - - NW 1001,7 -
09.12.2019 15:00:00 7,5 5,0 11 6 - - W 999,5 -
09.12.2019 14:00:00 7,4 4,7 18 10 - - WSW 998,2 30
09.12.2019 13:00:00 7,1 4,2 14 8 - - W 996,8 45
09.12.2019 12:00:00 6,3 4,5 11 6 - - WSW 995,7 45
09.12.2019 11:00:00 5,8 4,6 11 6 - - SW 995,1 25
09.12.2019 10:00:00 6,1 3,8 11 6 - - WSW 994,4 7
09.12.2019 09:00:00 6,8 3,4 22 12 - - SW 993,7 40
09.12.2019 08:00:00 7,0 3,2 22 12 - - SSW 992,9 40
09.12.2019 07:00:00 6,2 3,0 18 10 - - SSW 993,1 40
09.12.2019 06:00:00 6,5 3,3 22 12 - - SW 993,2 -
09.12.2019 05:00:00 6,7 3,3 22 12 - - SW 993,5 -
09.12.2019 04:00:00 6,7 3,5 22 12 - - SW 993,8 -
09.12.2019 03:00:00 6,9 3,1 25 14 - - SW 994,3 -
09.12.2019 02:00:00 7,0 3,3 25 14 47 25 SW 994,2 -
09.12.2019 01:00:00 7,2 3,6 25 14 - - SW 994,2 -
09.12.2019 00:00:00 6,0 4,0 11 6 - - SW 994,6 -
08.12.2019 23:00:00 6,2 3,1 29 16 54 29 W 995,0 -
08.12.2019 22:00:00 8,0 4,6 22 12 - - SW 994,4 -
08.12.2019 21:00:00 8,3 4,4 25 14 50 27 SW 995,0 -
08.12.2019 20:00:00 8,4 4,4 22 12 - - WSW 995,6 -
08.12.2019 19:00:00 8,5 4,7 22 12 - - SW 995,9 -
08.12.2019 18:00:00 8,0 5,0 18 10 - - SW 996,5 -
08.12.2019 17:00:00 8,3 5,1 22 12 50 27 WSW 996,7 -
08.12.2019 16:00:00 8,0 6,4 18 10 - - W 996,6 -
08.12.2019 15:00:00 10,1 7,5 25 14 - - SW 996,1 -
08.12.2019 14:00:00 10,2 7,6 25 14 47 25 WSW 996,6 -
08.12.2019 13:00:00 9,9 8,3 29 16 - - SW 996,2 -
08.12.2019 12:00:00 9,4 8,3 25 14 54 29 SW 996,7 -
08.12.2019 11:00:00 9,2 8,1 29 16 54 29 SW 997,3 -
08.12.2019 10:00:00 9,3 7,2 32 18 - - SW 997,7 -
08.12.2019 09:00:00 8,6 6,8 29 16 50 27 SSW 998,2 -
08.12.2019 08:00:00 9,0 6,1 32 18 58 31 SW 999,4 -
08.12.2019 07:00:00 9,4 5,0 32 18 - - SW 1000,4 -
08.12.2019 06:00:00 9,0 4,6 29 16 54 29 SW 1001,3 -
08.12.2019 05:00:00 9,1 4,5 32 18 54 29 SW 1003,0 -
08.12.2019 04:00:00 9,2 5,0 29 16 - - SW 1004,5 -
08.12.2019 03:00:00 9,0 5,2 29 16 - - SW 1005,7 -
08.12.2019 02:00:00 8,7 5,6 25 14 - - SW 1006,8 -
08.12.2019 01:00:00 8,3 4,5 22 12 - - SW 1008,1 -
08.12.2019 00:00:00 8,3 4,2 22 12 - - SW 1009,5 -
07.12.2019 23:00:00 8,4 5,3 22 12 - - SW 1009,9 -
07.12.2019 22:00:00 8,5 5,4 22 12 - - SW 1010,8 -
07.12.2019 21:00:00 8,6 5,8 18 10 - - SW 1011,3 -
07.12.2019 20:00:00 8,8 6,5 18 10 - - WSW 1011,7 -
07.12.2019 19:00:00 8,7 6,7 18 10 - - WSW 1011,7 -
07.12.2019 18:00:00 8,8 6,9 22 12 - - WSW 1011,6 -
07.12.2019 17:00:00 8,9 7,2 18 10 - - WSW 1011,1 -
07.12.2019 16:00:00 9,0 7,3 14 8 - - WSW 1010,8 -
07.12.2019 15:00:00 9,0 7,3 18 10 - - WSW 1010,2 -
07.12.2019 14:00:00 9,0 7,3 18 10 - - W 1010,3 -
07.12.2019 13:00:00 8,6 7,5 18 10 - - WSW 1010,0 -
07.12.2019 12:00:00 8,9 7,3 18 10 - - W 1009,6 -
07.12.2019 11:00:00 8,5 7,3 22 12 - - WSW 1009,6 -
07.12.2019 10:00:00 8,3 7,3 22 12 - - WSW 1009,1 -
07.12.2019 09:00:00 8,5 7,3 22 12 - - W 1008,3 -
07.12.2019 08:00:00 8,6 7,2 22 12 - - W 1007,4 -
07.12.2019 07:00:00 8,5 7,3 22 12 - - W 1006,4 -
07.12.2019 06:00:00 8,4 7,4 22 12 - - W 1005,5 -
07.12.2019 05:00:00 8,6 7,2 18 10 - - W 1004,5 -
07.12.2019 04:00:00 8,6 7,4 22 12 - - W 1003,3 -
07.12.2019 03:00:00 8,7 7,8 18 10 - - W 1002,3 -
07.12.2019 02:00:00 8,1 7,4 18 10 - - WSW 1001,2 -
07.12.2019 01:00:00 8,1 7,1 22 12 - - WSW 1000,7 -
07.12.2019 00:00:00 7,7 6,5 22 12 - - SW 1000,2 -
06.12.2019 23:00:00 7,8 5,9 29 16 47 25 SW 1000,4 -
06.12.2019 22:00:00 7,6 6,2 29 16 - - SW 1000,9 -
06.12.2019 21:00:00 7,5 6,2 29 16 50 27 SW 1001,1 -
06.12.2019 20:00:00 7,4 6,2 29 16 47 25 SW 1001,6 -
06.12.2019 19:00:00 6,9 6,0 29 16 - - SW 1002,0 -
06.12.2019 18:00:00 6,8 5,7 25 14 - - SW 1002,3 -
06.12.2019 17:00:00 6,4 5,5 25 14 47 25 SW 1002,7 -
06.12.2019 16:00:00 6,1 5,0 25 14 - - SW 1003,3 -
06.12.2019 15:00:00 5,7 4,6 29 16 47 25 SW 1004,1 -
06.12.2019 14:00:00 5,3 4,4 25 14 47 25 SW 1005,0 -
06.12.2019 13:00:00 5,0 4,1 29 16 - - SW 1005,9 -
06.12.2019 12:00:00 4,8 3,9 29 16 50 27 SSW 1006,7 -
06.12.2019 11:00:00 4,6 3,6 25 14 - - SW 1008,0 4,3
06.12.2019 10:00:00 4,5 3,4 25 14 - - SW 1008,3 4,8
06.12.2019 09:00:00 4,2 3,2 29 16 47 25 SW 1008,8 4,5
06.12.2019 08:00:00 4,3 3,3 29 16 47 25 SW 1008,9 4,1
06.12.2019 07:00:00 4,2 3,0 25 14 - - SW 1009,2 5
06.12.2019 06:00:00 4,2 2,7 29 16 - - SW 1009,3 6
06.12.2019 05:00:00 4,0 2,5 29 16 47 25 SW 1009,5 -
06.12.2019 04:00:00 4,1 2,5 32 18 - - SW 1010,0 -
06.12.2019 03:00:00 3,9 2,4 32 18 54 29 SW 1010,5 -
06.12.2019 02:00:00 4,2 2,8 29 16 47 25 SW 1010,9 -
06.12.2019 01:00:00 3,8 2,6 32 18 - - SW 1011,8 -
06.12.2019 00:00:00 3,6 2,4 29 16 47 25 SW 1012,8 -
05.12.2019 23:00:00 3,3 1,8 25 14 - - SW 1013,6 -
05.12.2019 22:00:00 3,1 1,6 25 14 - - SW 1014,5 -
05.12.2019 21:00:00 2,9 1,9 22 12 - - SW 1015,1 -
05.12.2019 20:00:00 2,4 2,1 25 14 - - SW 1015,8 -
05.12.2019 19:00:00 1,6 1,2 18 10 - - SSW 1016,7 -
05.12.2019 18:00:00 1,0 0,6 18 10 - - SSW 1017,4 -
05.12.2019 17:00:00 0,8 0,5 14 8 - - SSW 1017,8 -
05.12.2019 16:00:00 0,9 0,6 14 8 - - SSW 1018,3 -
05.12.2019 15:00:00 0,8 0,6 18 10 - - SW 1018,6 0,2
05.12.2019 14:00:00 0,6 0,3 14 8 - - SW 1019,3 0,2
05.12.2019 13:00:00 0,0 -0,3 14 8 - - SW 1019,4 0,2
05.12.2019 12:00:00 -0,4 -0,8 11 6 - - SW 1019,9 0,2
05.12.2019 11:00:00 -1,0 -1,4 18 10 - - SW 1019,9 0,3
05.12.2019 10:00:00 -0,6 -1,2 11 6 - - SW 1019,8 2,0
05.12.2019 09:00:00 -1,1 -1,5 7 4 - - SSW 1019,8 4,5
05.12.2019 08:00:00 -1,6 -2,0 7 4 - - WSW 1020,1 6
05.12.2019 07:00:00 -2,3 -2,7 4 2 - - N 1020,1 5
05.12.2019 06:00:00 -3,0 -3,4 4 2 - - N 1019,6 -
05.12.2019 05:00:00 -2,4 -2,8 4 2 - - N 1020,0 -
05.12.2019 04:00:00 -1,3 -1,6 7 4 - - N 1019,5 -
05.12.2019 03:00:00 -1,6 -2,0 4 2 - - N 1019,6 -
05.12.2019 02:00:00 -1,8 -2,1 0 0 - - N 1019,9 -
05.12.2019 01:00:00 -1,5 -1,7 4 2 - - WNW 1020,3 -
05.12.2019 00:00:00 -1,8 -2,0 4 2 - - SW 1020,7 -
04.12.2019 23:00:00 -1,5 -1,8 0 0 - - N 1020,9 -
04.12.2019 22:00:00 -1,3 -1,7 4 2 - - NNE 1021,3 -
04.12.2019 21:00:00 -1,1 -1,5 4 2 - - SW 1021,5 -
04.12.2019 20:00:00 -0,4 -0,8 0 0 - - N 1021,7 -
04.12.2019 19:00:00 0,1 -0,3 0 0 - - N 1021,5 -
04.12.2019 18:00:00 1,3 0,7 0 0 - - N 1021,4 -

tt = Température de l'air
td = dewpoint
ff = Vitesse du vent
fx = gusts
dd = Direction du vent
ppp = reduced air pressure
vv = visibility

stations d'obs. à proximité